Location: Cudham
(51.3000°N, 0.0667°E)
Time: 16:36:34
(UTC+00:00)

USA 229 DEB - Pass Details

Date: 26 April 2026
Orbit: 844 x 1364 km, 63.4° (Epoch: 10 January)

Event Time Altitude Azimuth Distance (km) Brightness Sun altitude
Rises 20:05:05 0° 302° (WNW) 3,778 9.2 -7.8°
Reaches altitude 10° 20:07:51 10° 312° (NW) 2,903 7.7 -8.2°
Maximum altitude 20:14:11 36° 17° (NNE) 1,774 5.1 -9.0°
Drops below altitude 10° 20:21:14 10° 82° (E) 3,244 5.8 -9.9°
Enters shadow 20:23:41 - 89° (E) 4,011 6.2 -10.2°
